TimeEDT,TemperatureF,Dew PointF,Humidity,Sea Level PressureIn,VisibilityMPH,Wind Direction,Wind SpeedMPH,Gust SpeedMPH,PrecipitationIn,Events,Conditions,WindDirDegrees,DateUTC
12:56 AM,36.0,23.0,59,29.84,10.0,NW,4.6,-,N/A,,Clear,320,2013-03-27 04:56:00
1:56 AM,35.1,24.1,64,29.83,10.0,WNW,6.9,-,N/A,,Clear,300,2013-03-27 05:56:00
2:56 AM,35.1,24.1,64,29.83,10.0,NW,6.9,-,N/A,,Clear,320,2013-03-27 06:56:00
3:56 AM,34.0,23.0,64,29.83,10.0,NW,5.8,-,N/A,,Clear,310,2013-03-27 07:56:00
4:56 AM,33.1,23.0,66,29.83,10.0,NW,6.9,-,N/A,,Clear,320,2013-03-27 08:56:00
5:56 AM,33.1,23.0,66,29.85,10.0,NW,6.9,-,N/A,,Partly Cloudy,320,2013-03-27 09:56:00
6:56 AM,34.0,23.0,64,29.86,10.0,NW,8.1,-,N/A,,Partly Cloudy,310,2013-03-27 10:56:00
7:56 AM,37.0,24.1,59,29.87,10.0,NW,11.5,-,N/A,,Clear,310,2013-03-27 11:56:00
8:56 AM,41.0,24.1,51,29.89,10.0,WNW,11.5,-,N/A,,Clear,300,2013-03-27 12:56:00
9:56 AM,45.0,23.0,42,29.88,10.0,NW,11.5,-,N/A,,Partly Cloudy,310,2013-03-27 13:56:00
10:56 AM,48.0,23.0,37,29.88,10.0,NNW,11.5,-,N/A,,Partly Cloudy,330,2013-03-27 14:56:00
11:56 AM,50.0,19.9,31,29.87,10.0,West,13.8,17.3,N/A,,Partly Cloudy,270,2013-03-27 15:56:00
12:56 PM,51.1,18.0,27,29.86,10.0,NNW,13.8,18.4,N/A,,Scattered Clouds,330,2013-03-27 16:56:00
1:56 PM,51.1,19.9,29,29.85,10.0,West,11.5,20.7,N/A,,Mostly Cloudy,270,2013-03-27 17:56:00
2:56 PM,51.1,21.0,31,29.84,10.0,NW,12.7,19.6,N/A,,Mostly Cloudy,320,2013-03-27 18:56:00
3:56 PM,52.0,21.0,30,29.83,10.0,West,13.8,21.9,N/A,,Mostly Cloudy,280,2013-03-27 19:56:00
4:56 PM,52.0,21.9,31,29.84,10.0,WNW,17.3,23.0,N/A,,Scattered Clouds,300,2013-03-27 20:56:00
5:56 PM,48.9,21.0,33,29.85,10.0,WNW,15.0,21.9,N/A,,Scattered Clouds,290,2013-03-27 21:56:00
6:56 PM,48.0,21.9,36,29.86,10.0,WNW,11.5,-,N/A,,Mostly Cloudy,290,2013-03-27 22:56:00
7:56 PM,46.9,24.1,41,29.89,10.0,WNW,10.4,-,N/A,,Mostly Cloudy,290,2013-03-27 23:56:00
8:56 PM,44.1,25.0,47,29.90,10.0,West,6.9,-,N/A,,Partly Cloudy,280,2013-03-28 00:56:00
9:56 PM,43.0,24.1,47,29.92,10.0,WNW,10.4,-,N/A,,Partly Cloudy,290,2013-03-28 01:56:00
10:56 PM,42.1,26.1,53,29.92,10.0,WNW,10.4,-,N/A,,Partly Cloudy,300,2013-03-28 02:56:00
11:56 PM,39.9,26.1,58,29.93,10.0,WNW,9.2,-,N/A,,Partly Cloudy,300,2013-03-28 03:56:00